Regional Weather Roundup
Issued by NWS Columbia, SC

Home | Current Version | Previous Version | Text Only | Print | Product List | Glossary On
Versions: 1 2 3 4 5 6 7 8 9 10 11 12 13 14 15 16 17 18 19 20 21 22 23 24 25 26 27 28 29 30 31 32 33 34 35 36 37 38 39 40 41 42 43 44 45 46 47 48 49 50
000
ASUS42 KCAE 310210
RWRCAE
REGIONAL WEATHER ROUNDUP
NATIONAL WEATHER SERVICE COLUMBIA SC
1000 PM EDT WED JUL 30 2014

NOTE: "FAIR" INDICATES FEW OR NO CLOUDS BELOW 12,000 FEET WITH NO
SIGNIFICANT WEATHER AND/OR OBSTRUCTIONS TO VISIBILITY.

NOT ALL STATIONS ARE QUALITY CONTROLLED BY THE NATIONAL
WEATHER SERVICE. USE DATA WITH CAUTION...ESPECIALLY
DEWPOINT OBSERVATIONS.

SCZ001>056-GAZ040-063>065-077-310300-
...UPSTATE SOUTH CAROLINA...

CITY           SKY/WX    TMP DP  RH WIND       PRES   REMARKS
ANDERSON       PTCLDY    74  60  61 CALM      30.06R
LIBERTY        FAIR      70  32  24 MISG      30.06R
SPARTANBURG    FAIR      72  66  83 CALM      30.06R
CLEMSON        PTCLDY    75  64  68 CALM      30.07R
GREENVILLE     MOCLDY    75  59  57 NE5       30.08R
GREENWOOD      PTCLDY    75  62  64 NE5       30.06R
GREER          MOCLDY    72  61  68 NE3       30.06R
ROCK HILL      CLOUDY    73  67  81 CALM      30.07R
CHESTER        FAIR      77  66  69 SE3       30.07R
LAURENS        CLOUDY    75  64  69 NE3       30.06R


...CENTRAL SOUTH CAROLINA...

CITY           SKY/WX    TMP DP  RH WIND       PRES   REMARKS
COLUMBIA APT   PTCLDY    78  65  63 E6        30.03R
COLUMBIA OWENS PTCLDY    74  67  78 CALM      30.05R
DARLINGTON     CLOUDY    73  64  73 N6        30.07R
FLORENCE       MOCLDY    77  69  76 SE5       30.04R
MCENTIRE ANGB  MOCLDY    73  68  86 E5        30.05R
ORANGEBURG     PTCLDY    73  68  84 E3        30.04R
SUMTER SHAW    PTCLDY    73  68  83 N5        30.03R
NEWBERRY       MOCLDY    77  64  65 CALM      30.08R
AIKEN          CLOUDY    75  70  83 NE3       30.08R
BARNWELL       CLOUDY    75  66  73 E5        30.03R
MANNING        FAIR      70 N/A N/A CALM      30.03R
CAMDEN         MOCLDY    72  68  88 CALM      30.06R
LANCASTER      FAIR      73  68  83 E5        30.07R
WINNSBORO      MOCLDY    72  72 100 CALM      30.05R


...EASTERN AND COASTAL SOUTH CAROLINA...

CITY           SKY/WX    TMP DP  RH WIND       PRES   REMARKS
MYRTLE BEACH   CLOUDY    81  64  57 E9        30.04R
N MYRTLE BCH   MOCLDY    80  64  58 E8        30.04R
CONWAY         MOCLDY    73  72  94 CALM      30.05R
MARION         FAIR      73  68  83 SE3       30.05R
HARTSVILLE     CLOUDY    72  64  78 N3        30.07R
FLORENCE       MOCLDY    77  69  76 SE5       30.04R
DARLINGTON     CLOUDY    73  64  73 N6        30.07R
CHARLESTON APT PTCLDY    80  70  71 E6        30.03R
MOUNT PLEASANT FAIR      79  72  78 CALM      30.03R
WALTERBORO     MOCLDY    73 N/A N/A NE5       30.04R
BEAUFORT       MOCLDY    82  71  69 SE8       30.01R


...EASTERN GEORGIA...

CITY           SKY/WX    TMP DP  RH WIND       PRES   REMARKS
AUGUSTA BUSH F MOCLDY    75  68  78 SE5       30.01R
AUGUSTA DANIEL PTCLDY    79  68  69 SE8       30.03R
THOMSON        CLOUDY    82  70  68 NE3       30.06R
WASHINGTON     FAIR      81  70  69 NE3       30.04R
CLAXTON        CLOUDY    79  77  94 CALM      30.00R FOG
SYLVANIA       PTCLDY    73  72  97 E3        30.02S
STATESBORO     CLEAR     75  71  87 E3        30.01R
SAVANNAH       MOCLDY    78  73  84 E5        30.01R


...SOUTHERN NORTH CAROLINA...

CITY           SKY/WX    TMP DP  RH WIND       PRES   REMARKS
CHARLOTTE      CLOUDY    78  58  49 E5        30.07R
MONROE         CLOUDY    74  65  73 VRB5      30.07R
WADESBORO      CLOUDY    75  68  80 CALM      30.05R
ROCKINGHAM       N/A     79  66  65 CALM      30.06R
RUTHERFORDTON  CLOUDY    69  65  90 CALM      30.10R
ASHEVILLE      CLOUDY    66  55  67 N8        30.14R

$$



USA.gov is the U.S. government's official web portal to all federal, state and local government web resources and services.